CZ-6A DEB, 61424

Orbit data source: Space-Track

CZ-6A DEB, 61424 is space debris in LEO originally from a launch on Tue, 06 Aug 2024 UTC launched from the Taiyaun Space Center, China (TSC). Debris objects in space refer to the collection of defunct objects orbiting the Earth. Examples of debris include non-operational satellites, rocket bodies, and fragments generated from explosions, collisions, or faulty payload assembly.

Loading next visibility...
Identifier
61424, 2024-140YR
Orbit
LEO
Country
Flag of CNCN / PRC
Related business
Manufacturer
SAST
Mission
Spacecraft
Bus & Motor
Unknown
Mass
Unknown
Launch date (UTC)
2024-08-06 (1 year ago)
Launch vehicle
Unknown
Launch site
Taiyaun Space Center, China (TSC)
Object type
Payload
Rocket body
Debris
Shape & HBR
Unknown shape, 0.1 m
Radar Cross Section
Small (<0.1 m²)

Expand to show TLE details & history
Last TLE update: 1 day ago

TLE from 1 day ago
0 CZ-6A DEB
1 61424U 24140YR  25312.66059109  .00002191  00000-0  59189-3 0  9995
2 61424  89.0044 297.8136 0071170 313.5576  45.9731 14.46049458 64022
Epoch: 2025-11-08T15:51Z
TLE epoch observation values (Epoch: 2025-11-08T15:51:15.070Z)
Latitude
-0.00004°
Longitude
11.9138°
Altitude
706.65 km
Speed
7.521 km/s
True Right ascension
19h 51m 15s
True Declination
0° 00' 00"
Sunlit
Object was in daylight at epoch
Visualization orbit readout
Latitude
Unknown
Longitude
Unknown
Altitude
Unknown
Speed
Unknown
Apparent Right ascension
Unknown
Apparent Declination
Unknown
Sunlit
N/A
Visualization observer readout
Local Sidereal Time
19:44:23
Azimuth
Unknown
Elevation
Unknown
Doppler factor
Unknown
Orbital elements
Apogee altitude
786.122 km
Perigee altitude
684.867 km
Semi-major axis
7,113.631 km
Eccentricity
0.00712
Inclination
89.0044°
RAAN
297.8136°
Arg. of periapsis
313.5576°
True anomaly
46.56313°
Mean anomaly
45.9731°
Eccentric anomaly
46.26775°
Mean motion
3.61748 °/min
Orbital period
99.52 mins
BSTAR
0.00059189
Loading maneuver chart data...
Computing Atmospheric mass density...

Documentation

Showing up to 5 results
|